Tracking 20093 objects as of 14-Dec-2019
HD Live streaming from Space Station
objects crossing your sky now

COSMOS 2251 DEB

Track COSMOS 2251 DEB now!
10-day predictions


NORAD ID: 33766
Int'l Code: 1993-036P
Perigee: 753.0 km
Apogee: 852.8 km
Inclination: 74.2 °
Period: 100.8 minutes
Semi major axis: 7173 km
RCS: 0.3164 m2 (medium)
Launch date: June 16, 1993
Source: Commonwealth of Independent States (former USSR) (CIS)
Launch site: PLESETSK MISSILE AND SPACE COMPLEX (PKMTR)

Note: This is SATELLITE DEBRIS
aabbcc
Your satellite tracking list
Your tracking list is empty




NASA's NSSDC Master Catalog

Two Line Element Set (TLE):
1 33766U 93036P   19347.83947958 +.00000179 +00000-0 +78759-4 0  9990
2 33766 074.1885 125.2450 0069566 226.9151 132.6164 14.28791694564141
Source of the keplerian elements: AFSPC